Location: Fort Wayne
(41.1310°N, 85.1290°W)
Time: 00:59:39
(UTC-04:00)

Daily predictions for brighter satellites

Satellite Brightness Start Highest point End
(mag) Time Altitude Azimuth Time Altitude Azimuth Time Altitude Azimuth
Spot 4 3.9 00:04:05 56° SSW 00:04:52 66° W 00:09:38 10° NNW
CARTOSAT-1 4.2 00:05:16 42° WSW 00:05:49 44° W 00:09:59 10° NNW
Cosmos 1943 Rocket 2.7 00:02:26 10° NW 00:07:45 48° WSW 00:09:02 41° SW
USA 234 3.6 00:06:30 40° S 00:08:15 49° SW 00:14:36 10° WNW
DMSP B5D2-2 4.5 00:05:24 10° N 00:10:36 60° WNW 00:12:38 36° SW
Terra 2.4 00:10:21 41° SW 00:11:12 45° W 00:15:48 10° NNW
Cosmos 1707 3.7 00:12:54 40° NE 00:12:54 40° NE 00:15:48 10° NNE
Cosmos 614 Rocket 3.9 00:13:24 60° SSW 00:14:23 86° WNW 00:19:38 10° NNE
Cosmos 1656 Rocket 3.6 00:13:02 10° NNW 00:18:45 83° WSW 00:19:41 63° S
COSMOS 2487 3.5 00:23:16 45° N 00:23:16 45° N 00:25:54 10° NNE
Lacrosse 5 4.3 00:20:05 10° NNW 00:23:40 19° NNE 00:27:15 10° ENE
ALOS 2 3.9 00:27:54 30° ENE 00:27:54 30° ENE 00:31:43 10° N
Meteor 1-24 Rocket 4.0 00:29:45 51° ESE 00:30:21 53° E 00:36:05 10° NNE
Cosmos 1818 4.3 00:30:34 10° NNW 00:35:51 46° NE 00:37:06 39° E
USA 238 DEB 4.5 00:32:08 10° WSW 00:39:00 51° NW 00:45:53 10° NNE
USA 238 4.5 00:32:13 10° SW 00:39:05 52° NW 00:45:59 10° NNE
Cosmos 1733 4.0 00:36:17 10° NNW 00:39:17 50° NNW 00:39:17 50° NNW
Cosmos 1553 Rocket 4.4 00:34:57 10° N 00:41:10 53° ENE 00:42:23 46° ESE
CZ-4B R/B 3.2 00:44:24 29° NE 00:44:24 29° NE 00:46:51 10° N
Meteor 2-5 Rocket 4.2 00:54:17 44° WSW 00:55:41 55° WNW 01:01:22 10° N
Cosmos 2344 3.9 00:56:45 44° SE 00:57:45 46° ESE 01:05:42 10° NE
Landsat 5 4.4 00:59:37 41° NE 00:59:37 41° NE 01:02:44 10° N
SL-8 R/B 4.4 00:54:44 10° WNW 00:58:15 45° W 00:58:15 45° W
H-2A R/B 3.4 00:56:16 10° NNE 00:58:50 40° NNE 00:58:50 40° NNE
CENTAUR R/B 4.0 01:03:42 21° E 01:03:42 21° E 01:07:44 10° ENE
NOSS 3-3 (A) 4.4 00:57:51 10° NW 01:05:20 87° WSW 01:07:31 53° SSE
NOSS 3-3 (C) 4.4 00:57:57 10° NW 01:05:27 88° WSW 01:07:38 53° SSE
Cosmos 2369 3.8 01:00:31 10° NNW 01:06:10 66° ENE 01:06:47 61° E
Cosmos 2266 Rocket 4.5 01:05:52 44° ESE 01:06:40 46° E 01:12:45 10° NNE
Cosmos 1766 Rocket 3.9 01:08:57 65° NNW 01:08:57 65° NNW 01:12:52 10° N
Cosmos 1076 Rocket 4.0 01:09:32 55° NNW 01:09:32 55° NNW 01:13:03 10° N
Meteor 2-1 Rocket 4.3 01:03:22 10° NNW 01:09:14 70° W 01:09:47 66° SW
S3M 3.8 01:03:01 10° N 01:09:16 88° E 01:10:04 70° SSE
Cosmos 1867 3.6 01:11:28 68° E 01:11:28 68° E 01:16:34 10° NE
Cosmos 2221 3.5 01:07:54 10° NNW 01:11:18 40° WNW 01:11:18 40° WNW
NOSS 3-2 (C) 3.5 01:11:29 53° SW 01:13:02 79° NW 01:19:45 10° NNE
Cosmos 841 Rocket 4.0 01:10:04 10° N 01:15:12 50° ENE 01:15:38 49° E
Cosmos 1328 Rocket 4.2 01:11:36 10° N 01:15:14 52° NE 01:15:14 52° NE
Cosmos 1428 Rocket 4.3 01:16:11 68° SSW 01:17:01 84° W 01:23:16 10° N
ISS 0.1 01:18:47 10° NNW 01:20:29 13° N 01:22:12 10° NE
Cosmos 1980 Rocket 4.0 01:19:37 10° N 01:24:11 25° NE 01:27:03 17° E
Cosmos 405 Rocket 4.0 01:25:50 38° NNW 01:25:50 38° NNW 01:28:23 10° N
Timation 2 Rocket 4.1 01:23:48 58° SSW 01:25:19 85° WNW 01:32:10 10° NNE
Cosmos 2278 3.6 01:22:32 10° NNW 01:28:11 72° WSW 01:28:13 72° WSW
Cosmos 1515 Rocket 4.1 01:26:13 10° N 01:29:59 57° NNE 01:29:59 57° NNE
CZ-4C R/B 2.9 01:30:35 36° W 01:32:23 49° NW 01:38:15 10° NNE
Meteor 2-2 Rocket 4.4 01:28:03 10° N 01:33:44 60° ENE 01:34:22 57° ESE
Cosmos 724 4.2 01:35:20 69° ESE 01:35:20 69° ESE 01:41:06 10° NE
CZ-2C R/B 4.2 01:40:07 34° E 01:41:26 39° ENE 01:46:42 10° N
Lacrosse 5 rocket 4.1 01:40:29 10° NNW 01:43:32 19° NNE 01:46:40 10° ENE
Cosmos 2228 Rocket 4.0 01:39:41 10° NNW 01:43:03 42° WNW 01:43:03 42° WNW
Cosmos 1697 Rocket 3.2 01:38:34 10° NNW 01:44:08 53° ENE 01:45:14 46° E
Cosmos 2082 Rocket 2.0 01:45:38 83° SSE 01:45:48 86° ESE 01:51:30 10° NNE
Cosmos 1833 Rocket 2.6 01:50:36 73° ESE 01:50:38 73° ESE 01:56:16 10° NNE
Cosmos 1437 Rocket 4.0 01:50:04 10° N 01:52:51 38° NNE 01:52:51 38° NNE
Cosmos 836 Rocket 4.4 01:51:50 10° NNW 01:56:59 86° N 01:56:59 86° N
Cosmos 2058 4.5 01:58:15 28° ENE 01:58:15 28° ENE 02:01:10 10° NNE
Helios 1A Rocket 4.0 01:56:15 10° N 01:59:26 38° NW 01:59:26 38° NW
ALOS 2 4.4 02:05:18 22° WNW 02:05:18 22° WNW 02:07:49 10° NW
Cosmos 1656 3.5 02:01:44 10° NNW 02:07:27 77° WSW 02:07:36 77° SW
Lacrosse 5 2.2 02:02:29 10° NW 02:07:31 63° NE 02:08:18 55° E
Cosmos 1674 3.9 02:10:04 40° N 02:10:04 40° N 02:12:33 10° N
Cosmos 540 Rocket 3.7 02:08:50 10° NNW 02:13:59 62° ENE 02:14:31 58° E
Cosmos 2151 3.4 02:16:00 59° NNE 02:16:00 59° NNE 02:19:30 10° N
Cosmos 1763 Rocket 4.3 02:10:42 10° NNW 02:15:03 40° W 02:15:03 40° W
MOS 1-B Rocket 4.3 02:13:51 53° S 02:15:49 81° WSW 02:22:32 10° NNW
Cosmos 1707 Rocket 4.3 02:12:07 10° N 02:16:06 44° ENE 02:16:06 44° ENE
CZ-4B R/B 4.4 02:18:11 11° WNW 02:18:11 11° WNW 02:18:34 10° WNW
Cosmos 1151 Rocket 3.7 02:15:28 10° NNW 02:18:43 46° NW 02:18:43 46° NW
CZ-2C R/B 2.7 02:14:21 10° N 02:19:52 69° WNW 02:20:21 65° WSW
USA 215 4.3 02:18:23 10° ENE 02:23:53 28° SE 02:24:05 28° SE
SL-16 R/B 3.8 02:23:51 10° N 02:28:49 30° NE 02:33:31 11° ESE
Meteor 1-27 4.4 02:29:39 10° N 02:35:31 69° E 02:36:49 52° SE
Cosmos 2322 Rocket 3.4 02:34:34 10° N 02:39:49 38° ENE 02:43:42 17° ESE
SL-14 R/B 4.0 02:43:23 49° NE 02:43:23 49° NE 02:46:29 10° NNE
Sich 1 3.1 02:46:24 70° ENE 02:46:24 70° ENE 02:50:40 10° NNE
Aureole 1 Rocket 3.8 02:45:48 10° NNW 02:50:36 54° WSW 02:50:43 54° WSW
CENTAUR R/B 2.7 02:50:51 45° WSW 02:52:48 66° NW 02:59:40 10° NNE
Cosmos 1703 4.0 02:54:37 45° E 02:54:37 45° E 02:58:12 10° NNE
Cosmos 1745 Rocket 3.9 02:54:49 53° S 02:56:29 87° E 03:02:52 10° N
Cosmos 1271 Rocket 4.1 02:54:19 10° N 02:57:43 31° ENE 02:58:10 30° E
ISS -1.2 02:54:53 10° NW 02:57:46 28° NNE 03:00:37 10° E
Cosmos 968 Rocket 3.3 02:59:41 68° SSE 03:00:16 78° ESE 03:05:26 10° NNE
Cosmos 332 Rocket 3.7 02:57:21 10° NNW 03:01:59 65° W 03:01:59 65° W
Nadezhda 1 Rocket 3.9 02:56:20 10° N 03:02:31 83° E 03:04:27 46° SSE
Cosmos 1980 Rocket 2.3 03:03:00 10° NNW 03:08:28 52° WSW 03:08:46 51° WSW
Meteor 1-4 Rocket 3.5 03:05:10 10° N 03:08:48 43° ENE 03:09:08 42° E
Cosmos 2360 Rocket 4.2 03:04:20 10° N 03:08:58 25° NE 03:13:35 10° ESE
ERS-2 2.8 03:05:25 10° NNE 03:08:48 48° E 03:08:48 48° E
ASTEX 1 3.9 03:04:49 10° N 03:09:32 44° WNW 03:09:56 43° W
Cosmos 1862 Rocket 4.4 03:05:30 10° N 03:09:48 45° ENE 03:11:06 35° ESE
Meteor 2-10 4.4 03:04:57 10° N 03:10:11 63° ENE 03:12:14 37° SE
NPP 4.1 03:06:12 10° NNE 03:11:29 53° E 03:13:03 40° SSE
Meteor 1-11 4.4 03:13:06 48° SW 03:14:21 60° WNW 03:20:08 10° N
Cosmos 1300 4.0 03:13:22 10° NNW 03:15:57 31° WNW 03:15:57 31° WNW
deb Kosmos-1763 4.2 03:17:44 78° NNE 03:17:44 78° NNE 03:21:22 10° NNE
IRAS Rocket 4.1 03:13:01 10° NNE 03:18:33 86° ESE 03:20:01 51° S
SL-08 R/B 3.7 03:18:22 35° SE 03:20:17 62° ENE 03:25:09 10° N
CZ-2C R/B 4.2 03:21:10 29° W 03:21:20 29° W 03:26:14 10° NW
BREEZE-M DEB (TANK) 3.8 03:18:45 10° NW 03:21:57 72° NNE 03:32:57 10° ESE
Lacrosse 5 rocket 1.5 03:19:00 10° NW 03:23:22 83° NE 03:25:32 31° SE
CZ-3 Stage 3 4.1 03:06:16 10° WSW 03:26:08 39° SSW 03:30:34 10° ESE
Cosmos 1697 Rocket 4.2 03:23:29 10° NW 03:26:56 21° W 03:26:56 21° W
ATLAS CENTAUR R/B 4.5 03:26:25 10° N 03:29:44 18° NE 03:32:54 10° E
PSLV R/B 4.0 03:25:27 10° N 03:29:52 50° WNW 03:30:25 47° W
Cosmos 2082 Rocket 4.4 03:27:27 11° W 03:30:39 16° NW 03:34:07 10° N
Cosmos 1538 Rocket 4.1 03:26:12 10° NNW 03:31:17 54° WSW 03:32:03 49° SW
Cosmos 923 Rocket 4.1 03:29:45 10° NNW 03:35:02 74° ENE 03:38:08 25° SSE
Cosmos 1726 3.6 03:32:06 10° NNW 03:34:22 25° WNW 03:34:22 25° WNW
IRS-1C 4.4 03:30:58 10° NNE 03:36:16 61° ESE 03:38:28 34° SSE
ATLAS 5 CENTAUR R/B 2.2 03:37:19 43° SSE 03:38:35 56° ESE 03:43:39 10° NE
Cosmos 1777 Rocket 4.0 03:41:52 44° SW 03:43:29 71° WNW 03:48:47 10° NNE
Cosmos 1680 Rocket 3.7 03:38:17 10° NNW 03:43:30 67° ENE 03:47:39 16° SSE
Cosmos 1455 2.0 03:40:16 10° N 03:44:04 84° W 03:44:25 71° SSW
Resurs 1-4 Rocket 3.8 03:40:48 10° NE 03:45:13 26° E 03:49:25 11° SSE
Cosmos 773 Rocket 3.8 03:40:23 10° NNW 03:45:31 72° WSW 03:47:30 37° S
Cosmos 1633 Rocket 4.3 03:46:01 26° W 03:46:26 26° WNW 03:50:12 10° NNW
Lacrosse 5 3.8 03:46:14 10° WNW 03:47:25 15° W 03:47:25 15° W
IRS-P3 4.3 03:45:19 10° N 03:50:33 58° WNW 03:52:27 37° SW
Cosmos 371 Rocket 4.1 03:48:12 10° NW 03:52:28 32° W 03:52:28 32° W
Cosmos 2292 Rocket 2.8 03:53:53 68° SSE 03:54:13 79° E 03:57:55 10° N
CBERS-1 4.0 03:49:53 10° N 03:55:00 75° WNW 03:57:01 38° SSW
Cosmos 1626 2.2 03:56:33 54° WSW 03:56:58 59° W 04:00:42 10° N
Cosmos 1346 3.3 03:56:55 59° ESE 03:57:07 62° E 04:00:10 10° NNE
Cosmos 1833 4.3 03:57:55 31° S 04:00:47 71° ESE 04:06:31 10° NNE
COSMOS 2428 4.5 03:56:31 10° N 04:01:35 32° ENE 04:06:37 10° ESE
Cosmos 304 Rocket 3.7 03:57:07 10° NNW 04:02:00 86° ENE 04:05:42 17° SSE
ARIANE 5 R/B 3.1 03:57:18 10° NNE 04:02:16 51° E 04:05:28 21° SSE
SAR-Lupe-3 4.5 04:02:42 56° SW 04:03:10 64° WSW 04:06:44 10° NNW
Cosmos 1703 Rocket 3.7 04:00:54 10° N 04:05:15 70° E 04:08:03 21° SSE
USA 215 3.3 04:00:43 10° NE 04:07:16 79° NW 04:11:25 24° WSW
Cosmos 2181 Rocket 4.0 04:01:22 10° NNW 04:07:30 69° W 04:11:26 23° S
IRS-1D 4.2 04:03:09 10° NNE 04:08:24 53° E 04:12:09 18° S
OAO 3 Rocket 3.6 04:08:11 36° SSW 04:08:33 37° S 04:12:51 10° ESE
Cosmos 1898 Rocket 4.3 04:09:12 18° SSE 04:12:42 44° ESE 04:17:36 10° NNE
SL-16 R/B 2.6 04:07:43 10° NW 04:13:01 41° WSW 04:15:18 28° SSW
BREEZE-M DEB (TANK) 3.6 04:12:47 10° NW 04:16:33 31° N 04:18:41 10° E
ADEOS 3.7 04:14:04 10° N 04:19:14 63° WNW 04:22:03 27° SW
UNKNOWN OBJECT B 4.2 04:19:46 10° NNE 04:23:17 34° E 04:26:32 12° SSE
Cosmos 2322 Rocket 3.0 04:18:53 10° NW 04:23:42 30° WSW 04:25:26 25° SW
Okean 1-7 3.3 04:20:14 10° N 04:24:38 70° E 04:28:49 11° SSE
UNK 4.1 04:20:11 10° SSE 04:24:42 65° ENE 04:29:15 10° N
Cosmos 1869 4.2 04:23:25 10° NNW 04:26:54 29° W 04:27:39 27° WSW
Cosmos 2219 Rocket 4.4 04:25:31 10° N 04:30:16 27° NE 04:34:58 10° ESE
Cosmos 2150 Rocket 4.2 04:29:36 19° S 04:33:26 74° ESE 04:38:49 10° NNE
USA 161 2.7 04:34:44 21° WNW 04:34:44 21° WNW 04:36:02 10° NW
ISS -3.0 04:31:11 10° WNW 04:34:17 41° SW 04:37:23 10° SSE
Cosmos 2074 Rocket 4.0 04:29:54 17° S 04:34:47 81° W 04:41:05 10° N
Meteor 2-3 Rocket 4.2 04:30:03 10° S 04:35:42 60° E 04:41:26 10° NNE
Cosmos 2112 Rocket 4.3 04:33:39 10° NNW 04:38:34 44° WSW 04:42:37 15° S
CZ-2D R/B 2.2 04:34:04 10° NNE 04:39:21 79° ESE 04:44:02 14° S
Cosmos 2184 Rocket 4.0 04:36:51 16° SSW 04:42:04 75° W 04:48:26 10° N
ERS-2 4.5 04:41:00 10° NW 04:42:25 12° WNW 04:43:39 10° W
EO 1 Del DPAF 3.5 04:44:32 18° S 04:47:14 48° W 04:51:03 10° NNW
SL-16 R/B 2.5 04:42:01 10° S 04:48:15 70° WSW 04:54:32 10° NNW
USA 129 3.1 04:53:56 16° NNW 04:53:56 16° NNW 04:54:24 10° NNW
Cosmos 2360 Rocket 2.4 04:47:48 10° NW 04:53:14 49° WSW 04:58:36 10° S
Meteor 2-10 Rocket 4.5 04:48:32 10° N 04:53:27 49° ENE 04:58:28 10° SSE
Okean O Rocket 2.4 04:49:27 10° NNE 04:53:45 49° E 04:58:01 10° S
Cosmos 2227 Rocket 3.9 04:52:42 10° SSE 04:57:25 28° ESE 05:02:10 10° NE
In-Cosmos 22 Rocket 4.1 04:53:24 11° SSW 04:58:28 81° W 05:03:55 10° N
Lacrosse 5 rocket 3.4 04:59:57 10° W 05:01:02 13° WSW 05:01:02 13° WSW
CZ-4B R/B 3.9 05:00:08 10° NNE 05:05:31 55° E 05:10:58 10° S
ATLAS CENTAUR R/B 1.5 05:04:45 10° NW 05:09:23 66° WSW 05:13:36 10° SSE
Cosmos 2333 4.3 05:04:25 10° NNW 05:10:06 86° ENE 05:15:48 10° SSE
Cosmos 2219 3.5 05:07:10 13° SW 05:12:09 57° WNW 05:17:51 10° NNE
Cosmos 2322 4.4 05:08:17 10° NW 05:13:23 34° WSW 05:18:28 10° SSW
USA 229 DEB 3.9 05:07:20 13° SW 05:13:36 68° NW 05:20:36 10° NNE
USA 229 3.9 05:07:26 13° SW 05:13:42 68° NW 05:20:43 10° NNE
Cosmos 1782 3.8 05:09:58 10° N 05:13:52 49° E 05:17:43 10° SSE
CZ-4B R/B 3.9 05:10:43 10° NNE 05:14:41 48° E 05:18:50 10° S
GPS 2-05 Rocket1 3.8 05:15:08 13° WSW 05:17:28 27° S 05:20:25 10° SE
Cosmos 990 Rocket 4.0 05:13:17 10° SSW 05:18:28 89° ESE 05:23:39 10° NNE
H-2A R/B 4.3 05:13:52 10° WSW 05:20:25 49° S 06:05:25 10° ESE
Abrixas 4.3 05:18:21 10° NW 05:21:13 34° NNE 05:24:05 10° E
CZ-2D R/B 3.5 05:18:31 10° N 05:22:38 62° WNW 05:26:36 10° SSW
ATLAS 5 CENTAUR R/B 3.5 05:19:35 10° W 05:23:39 24° NW 05:27:59 10° NNE
BREEZE-M DEB (TANK) 3.6 05:17:15 10° WNW 05:23:41 60° NNE 05:26:35 10° E
Okean-O 4.1 05:19:57 10° NNE 05:24:04 36° E 05:28:08 10° SSE
Resurs 1-4 Rocket 2.8 05:20:13 10° N 05:25:09 39° WNW 05:30:04 10° SW
BREEZE-M TANK 2.8 05:24:17 10° WNW 05:27:03 41° N 05:29:35 10° E
Cosmos 2297 Rocket 3.6 05:25:04 10° S 05:30:10 36° ESE 05:35:19 10° NE
CZ-4B DEB 4.3 05:26:47 10° NNE 05:32:19 84° ESE 05:37:50 10° SSW
NOSS 3-1 (A) 4.2 05:28:27 10° S 05:34:03 49° ESE 05:40:12 10° NE
Cosmos 1340 Rocket 2.9 05:30:11 10° S 05:34:13 87° ESE 05:38:14 10° N
Cosmos 2333 Rocket 2.7 05:29:48 10° NNW 05:35:30 67° ENE 05:41:12 10° SSE
Cosmos 1356 Rocket 3.8 05:33:10 10° S 05:37:13 66° E 05:41:14 10° NNE
MOZ.5/SAFIR/RUBIN 5/SL-8 3.8 05:34:36 10° S 05:39:16 76° WSW 05:44:02 10° NNW
Intercosmos 24 Rocket 4.2 05:35:32 10° S 05:39:20 87° W 05:42:54 10° N
Cosmos 1980 4.2 05:33:42 10° NNW 05:39:22 69° ENE 05:44:59 10° SSE
Cosmos 220 Rocket 4.2 05:35:37 10° SSW 05:39:47 56° WNW 05:44:02 10° N
ARIANE 5 R/B 4.1 05:37:23 10° NNW 05:40:59 20° WNW 05:44:34 10° WSW
Cosmos 2082 4.2 05:36:25 10° S 05:42:03 66° ESE 05:47:44 10° NNE
